FW5863 Weather Reports


Display with metric or nautical units.
time (UTC)temp
F
wind
direction
speed
MPH
gust
MPH
rain 1hr
in
rain 24hr
in
rain mn
in
humidity
%
barometer
mb
20260906233000 69 50 2.0 5.0 0.00 0.00 0.00 70 1016.1
20260906231959 69 50 2.0 4.0 0.00 0.00 0.00 70 1016.1
20260906231500 69 50 2.0 4.0 0.00 0.00 0.00 69 1016.1
20260906230459 70 50 2.0 4.0 0.00 0.00 0.00 68 1016.1
20260906230001 71 50 2.0 4.0 0.00 0.00 0.00 67 1016.1
20260906225500 72 50 2.0 4.0 0.00 0.00 0.00 66 1016.1
20260906224959 72 4 2.0 5.0 0.00 0.00 0.00 66 1016.1
20260906224500 73 347 2.0 5.0 0.00 0.00 0.00 64 1016.1
20260906224000 73 353 3.0 6.0 0.00 0.00 0.00 63 1016.1
20260906223459 73 355 3.0 6.0 0.00 0.00 0.00 63 1016.1
20260906223000 74 352 3.0 8.0 0.00 0.00 0.00 61 1016.1
20260906222459 74 1 3.0 8.0 0.00 0.00 0.00 61 1016.1
20260906221959 75 346 3.0 6.0 0.00 0.00 0.00 61 1016.0
20260906221500 75 3 4.0 6.0 0.00 0.00 0.00 60 1016.0
20260906220959 75 18 4.0 7.0 0.00 0.00 0.00 60 1015.9
20260906220459 76 347 4.0 8.0 0.00 0.00 0.00 58 1015.8
20260906220000 76 354 4.0 9.0 0.00 0.00 0.00 57 1015.7
20260906215500 76 341 3.0 9.0 0.00 0.00 0.00 57 1015.7
20260906214959 76 353 3.0 9.0 0.00 0.00 0.00 58 1015.6
20260906214500 76 343 4.0 8.0 0.00 0.00 0.00 57 1015.6
20260906213959 76 352 5.0 8.0 0.00 0.00 0.00 57 1015.6
20260906213500 77 319 4.0 8.0 0.00 0.00 0.00 54 1015.6
20260906213000 77 315 3.0 7.0 0.00 0.00 0.00 57 1015.5
20260906212459 77 325 3.0 6.0 0.00 0.00 0.00 56 1015.6
20260906211959 77 2 3.0 5.0 0.00 0.00 0.00 58 1015.6
20260906211501 76 334 3.0 10.0 0.00 0.00 0.00 57 1015.7
20260906210959 76 4 4.0 10.0 0.00 0.00 0.00 55 1015.6
20260906210459 77 330 4.0 9.0 0.00 0.00 0.00 58 1015.5
20260906210000 76 359 4.0 9.0 0.00 0.00 0.00 59 1015.5
20260906205459 76 28 4.0 9.0 0.00 0.00 0.00 56 1015.5
20260906204959 76 359 4.0 9.0 0.00 0.00 0.00 59 1015.4
20260906204500 76 22 3.0 10.0 0.00 0.00 0.00 59 1015.5
20260906203459 75 317 4.0 8.0 0.00 0.00 0.00 61 1015.5
20260906203000 76 33 4.0 8.0 0.00 0.00 0.00 59 1015.6
20260906202459 76 348 3.0 8.0 0.00 0.00 0.00 59 1015.6
20260906201959 77 346 3.0 8.0 0.00 0.00 0.00 59 1015.6
20260906201500 77 304 3.0 8.0 0.00 0.00 0.00 58 1015.6
20260906200959 77 338 3.0 7.0 0.00 0.00 0.00 60 1015.5
20260906200459 77 359 3.0 7.0 0.00 0.00 0.00 61 1015.5
20260906200000 77 357 3.0 8.0 0.00 0.00 0.00 61 1015.4
20260906194959 77 296 5.0 13.0 0.00 0.00 0.00 60 1015.5
20260906193959 77 257 3.0 8.0 0.00 0.00 0.00 59 1015.5
20260906193459 77 311 3.0 10.0 0.00 0.00 0.00 60 1015.5
20260906193000 76 357 4.0 10.0 0.00 0.00 0.00 62 1015.5
20260906192459 76 284 3.0 8.0 0.00 0.00 0.00 62 1015.6
20260906191959 76 346 2.0 6.0 0.00 0.00 0.00 62 1015.6
20260906191500 76 297 2.0 6.0 0.00 0.00 0.00 65 1015.6
20260906190959 76 3 2.0 7.0 0.00 0.00 0.00 63 1015.7
20260906190459 75 298 3.0 8.0 0.00 0.00 0.00 63 1015.7
20260906190000 75 5 4.0 8.0 0.00 0.00 0.00 65 1015.8
20260906184959 75 304 3.0 7.0 0.00 0.00 0.00 63 1015.8
20260906184500 75 296 3.0 9.0 0.00 0.00 0.00 63 1015.8
20260906183959 75 340 4.0 9.0 0.00 0.00 0.00 65 1015.9
20260906183459 75 6 4.0 9.0 0.00 0.00 0.00 66 1015.9
20260906183000 75 319 5.0 9.0 0.00 0.00 0.00 70 1015.9
20260906182459 74 282 4.0 9.0 0.00 0.00 0.00 69 1016.1
20260906181959 74 357 4.0 8.0 0.00 0.00 0.00 68 1016.1
20260906181500 75 7 3.0 8.0 0.00 0.00 0.00 67 1016.1
20260906180959 74 13 4.0 12.0 0.00 0.00 0.00 70 1016.2
20260906180459 74 301 4.0 12.0 0.00 0.00 0.00 67 1016.2
20260906180000 74 38 6.0 11.0 0.00 0.00 0.00 68 1016.1
20260906175500 75 291 6.0 11.0 0.00 0.00 0.00 65 1016.1
20260906174959 75 360 6.0 11.0 0.00 0.00 0.00 68 1016.1
20260906174500 74 18 6.0 11.0 0.00 0.00 0.00 68 1016.1
20260906173959 74 32 5.0 11.0 0.00 0.00 0.00 66 1016.2
20260906173459 74 12 6.0 11.0 0.00 0.00 0.00 69 1016.2
20260906173000 73 322 5.0 11.0 0.00 0.00 0.00 70 1016.3
20260906172459 73 340 5.0 11.0 0.00 0.00 0.00 70 1016.3
20260906171959 72 346 5.0 10.0 0.00 0.00 0.00 73 1016.4
20260906170959 72 291 4.0 9.0 0.00 0.00 0.00 70 1016.4
20260906170459 72 59 4.0 9.0 0.00 0.00 0.00 70 1016.5
20260906170000 72 355 3.0 9.0 0.00 0.00 0.00 70 1016.4
20260906165459 72 69 3.0 8.0 0.00 0.00 0.00 70 1016.4
20260906164959 72 62 4.0 8.0 0.00 0.00 0.00 71 1016.4
20260906164500 72 340 3.0 8.0 0.00 0.00 0.00 71 1016.4
20260906163959 73 61 3.0 6.0 0.00 0.00 0.00 71 1016.4
20260906163459 73 340 3.0 6.0 0.00 0.00 0.00 71 1016.3
20260906163000 72 327 3.0 6.0 0.00 0.00 0.00 71 1016.5
20260906162459 72 45 4.0 8.0 0.00 0.00 0.00 72 1016.5
20260906161959 72 8 3.0 8.0 0.00 0.00 0.00 74 1016.6
20260906161500 72 33 3.0 8.0 0.00 0.00 0.00 72 1016.6
20260906161000 72 344 4.0 10.0 0.00 0.00 0.00 73 1016.6
20260906160459 72 338 5.0 10.0 0.00 0.00 0.00 73 1016.7
20260906155459 72 326 4.0 9.0 0.00 0.00 0.00 73 1016.7
20260906154959 71 307 5.0 10.0 0.00 0.00 0.00 76 1016.8
20260906154500 71 347 6.0 12.0 0.00 0.00 0.00 74 1016.7
20260906153459 70 6 8.0 14.0 0.00 0.00 0.00 75 1016.9
20260906153000 70 348 6.0 11.0 0.00 0.00 0.00 77 1016.8
20260906152459 70 323 5.0 10.0 0.00 0.00 0.00 77 1016.8
20260906151959 70 350 5.0 10.0 0.00 0.00 0.00 77 1016.8
20260906151500 69 27 4.0 10.0 0.00 0.00 0.00 79 1016.8
20260906150959 70 334 3.0 10.0 0.00 0.00 0.00 78 1016.8
20260906150000 70 348 5.0 10.0 0.00 0.00 0.00 77 1016.7
20260906145459 70 312 6.0 10.0 0.00 0.00 0.00 76 1016.7
20260906144959 70 313 5.0 10.0 0.00 0.00 0.00 77 1016.7
20260906144500 70 352 5.0 10.0 0.00 0.00 0.00 77 1016.7
20260906143959 70 337 3.0 8.0 0.00 0.00 0.00 79 1016.7
20260906143000 70 346 4.0 10.0 0.00 0.00 0.00 79 1016.7
20260906141959 69 16 5.0 10.0 0.00 0.00 0.00 79 1016.6
20260906140959 69 32 4.0 10.0 0.00 0.00 0.00 81 1016.4
20260906140000 68 356 5.0 9.0 0.00 0.00 0.00 83 1016.4
20260906135459 68 355 6.0 11.0 0.00 0.00 0.00 82 1016.4
20260906134959 68 37 6.0 11.0 0.00 0.00 0.00 82 1016.3
20260906134500 68 23 5.0 11.0 0.00 0.00 0.00 82 1016.3
20260906133959 67 3 4.0 10.0 0.00 0.00 0.00 83 1016.3
20260906133459 67 45 4.0 10.0 0.00 0.00 0.00 85 1016.3
20260906133000 67 342 4.0 8.0 0.00 0.00 0.00 86 1016.3
20260906132459 67 38 4.0 9.0 0.00 0.00 0.00 86 1016.3
20260906131500 66 50 3.0 8.0 0.00 0.00 0.00 87 1016.1
20260906130959 65 5 3.0 6.0 0.00 0.00 0.00 89 1016.1
20260906130459 65 50 3.0 6.0 0.00 0.00 0.00 89 1016.2
20260906125459 65 317 4.0 8.0 0.00 0.00 0.00 88 1016.1
20260906124959 65 50 4.0 8.0 0.00 0.00 0.00 88 1016.1
20260906124500 65 50 4.0 8.0 0.00 0.00 0.00 89 1016.0
20260906123959 65 34 5.0 12.0 0.00 0.00 0.00 88 1016.0
20260906123459 64 50 5.0 12.0 0.00 0.00 0.00 88 1016.0
20260906123000 64 50 5.0 12.0 0.00 0.00 0.00 89 1015.9
20260906122459 64 50 4.0 9.0 0.00 0.00 0.00 89 1015.9
20260906121959 64 50 4.0 10.0 0.00 0.00 0.00 90 1015.8
20260906121500 64 50 5.0 10.0 0.00 0.00 0.00 90 1015.8
20260906120959 63 50 4.0 10.0 0.00 0.00 0.00 90 1015.7
20260906120459 63 50 4.0 10.0 0.00 0.00 0.00 91 1015.6
20260906120000 63 50 5.0 10.0 0.00 0.00 0.00 91 1015.4
20260906114959 62 50 4.0 10.0 0.00 0.00 0.00 92 1015.3
20260906114500 62 50 3.0 9.0 0.00 0.00 0.00 92 1015.2
20260906113959 62 50 2.0 6.0 0.00 0.00 0.00 93 1015.1
20260906113000 61 334 2.0 4.0 0.00 0.00 0.00 94 1015.1
20260906112459 61 334 2.0 5.0 0.00 0.00 0.00 94 1015.0
20260906111959 61 301 3.0 7.0 0.00 0.00 0.00 94 1015.0
20260906111500 60 294 2.0 7.0 0.00 0.00 0.00 95 1015.0
20260906110959 0 0.0 0.0 0.00 0.00 0.00 1015.0
20260906110459 0 0.0 0.0 0.00 0.00 0.00 1014.9
20260906104500 0 0.0 0.0 0.00 0.00 0.00 1014.8
20260906103459 0 0.0 0.0 0.00 0.00 0.00 1014.6
20260906102459 0 0.0 0.0 0.00 0.00 0.00 1014.4
20260906101959 0 0.0 0.0 0.00 0.00 0.00 1014.5
20260906101500 0 0.0 0.0 0.00 0.00 0.00 1014.4
20260906100959 0 0.0 0.0 0.00 0.00 0.00 1014.4
20260906100459 60 305 2.0 5.0 0.00 0.00 0.00 96 1014.3
20260906095459 60 299 2.0 5.0 0.00 0.00 0.00 96 1014.2
20260906094959 59 290 1.0 4.0 0.00 0.00 0.00 96 1014.2
20260906094500 59 329 1.0 3.0 0.00 0.00 0.00 96 1014.1
20260906093959 59 50 0.0 0.0 0.00 0.00 0.00 96 1014.1
20260906093459 59 50 0.0 0.0 0.00 0.00 0.00 97 1014.1
20260906091959 58 50 0.0 0.0 0.00 0.00 0.00 97 1014.0
20260906091500 58 50 0.0 0.0 0.00 0.00 0.00 97 1013.9
20260906090459 57 50 0.0 0.0 0.00 0.00 0.00 97 1013.8
20260906090001 57 50 0.0 0.0 0.00 0.00 0.00 97 1013.7
20260906085459 56 50 0.0 0.0 0.00 0.00 0.00 96 1013.7
20260906083959 57 50 0.0 0.0 0.00 0.00 0.00 96 1013.6
20260906083459 57 50 0.0 0.0 0.00 0.00 0.00 96 1013.5
20260906082459 57 50 0.0 0.0 0.00 0.00 0.00 95 1013.4
20260906081959 57 50 0.0 0.0 0.00 0.00 0.00 95 1013.4
20260906081500 57 50 0.0 0.0 0.00 0.00 0.00 95 1013.5
20260906080459 57 50 0.0 0.0 0.00 0.00 0.00 95 1013.4
20260906080000 57 50 0.0 0.0 0.00 0.00 0.00 95 1013.5
20260906075459 57 50 0.0 0.0 0.00 0.00 0.00 95 1013.3
20260906074959 57 50 0.0 0.0 0.00 0.00 0.00 94 1013.4
20260906074500 57 50 0.0 0.0 0.00 0.00 0.00 94 1013.5
20260906073959 58 50 0.0 0.0 0.00 0.00 0.00 94 1013.4
20260906073459 58 50 0.0 0.0 0.00 0.00 0.00 95 1013.5
20260906073000 58 50 0.0 0.0 0.00 0.00 0.00 94 1013.3
20260906072459 58 50 0.0 0.0 0.00 0.00 0.00 94 1013.4
20260906071959 58 50 0.0 0.0 0.00 0.00 0.00 94 1013.4
20260906071500 58 50 0.0 0.0 0.00 0.00 0.00 93 1013.4
20260906070959 58 50 0.0 0.0 0.00 0.00 0.00 93 1013.3
20260906065959 58 50 0.0 0.0 0.00 0.00 0.00 94 1013.4
20260906065459 58 50 0.0 0.0 0.00 0.00 0.00 93 1013.4
20260906064959 58 50 0.0 0.0 0.00 0.00 0.00 93 1013.3
20260906064500 58 50 0.0 0.0 0.00 0.00 0.00 93 1013.3
20260906063459 59 50 0.0 0.0 0.00 0.00 0.00 92 1013.5
20260906063000 59 50 0.0 0.0 0.00 0.00 0.00 92 1013.4
20260906062459 59 50 0.0 0.0 0.00 0.00 0.00 92 1013.4
20260906061959 59 50 0.0 0.0 0.00 0.00 0.00 92 1013.4
20260906061500 59 50 0.0 0.0 0.00 0.00 0.00 92 1013.4
20260906060959 59 50 0.0 0.0 0.00 0.00 0.00 92 1013.4
20260906060459 59 50 0.0 0.0 0.00 0.00 0.00 91 1013.5
20260906060000 60 50 0.0 0.0 0.00 0.00 0.00 91 1013.6
20260906055459 60 50 0.0 0.0 0.00 0.00 0.00 90 1013.6
20260906054459 60 50 0.0 1.0 0.00 0.00 0.00 93 1013.6
20260906053959 60 50 0.0 1.0 0.00 0.00 0.00 93 1013.7
20260906052959 59 50 0.0 0.0 0.00 0.00 0.00 94 1013.9
20260906052459 59 50 0.0 0.0 0.00 0.00 0.00 93 1013.8
20260906051959 59 50 0.0 0.0 0.00 0.00 0.00 92 1013.8
20260906051500 59 50 0.0 1.0 0.00 0.00 0.00 91 1013.8
20260906050959 59 50 0.0 1.0 0.00 0.00 0.00 90 1013.7
20260906050459 59 50 0.0 0.0 0.00 0.00 0.00 89 1013.8
20260906050000 60 321 0.0 1.0 0.00 0.00 0.00 89 1013.8
20260906045459 60 321 1.0 3.0 0.00 0.00 0.00 91 1013.8
20260906044959 60 321 1.0 3.0 0.00 0.00 0.00 92 1013.8
20260906044500 60 322 0.0 3.0 0.00 0.00 0.00 92 1013.8
20260906043959 60 304 0.0 0.0 0.00 0.00 0.00 92 1013.9
20260906043459 59 304 0.0 0.0 0.00 0.00 0.00 92 1013.9
20260906043000 59 303 0.0 0.0 0.00 0.00 0.00 92 1013.8
20260906042459 59 302 0.0 0.0 0.00 0.00 0.00 92 1013.8
20260906041959 59 303 0.0 0.0 0.00 0.00 0.00 91 1013.8
20260906041500 60 304 0.0 0.0 0.00 0.00 0.00 91 1013.8
20260906040459 60 304 0.0 0.0 0.00 0.00 0.00 91 1013.7
20260906040000 60 304 0.0 0.0 0.00 0.00 0.00 92 1013.7
20260906035459 60 304 0.0 0.0 0.00 0.00 0.00 91 1013.7
20260906034959 60 304 0.0 0.0 0.00 0.00 0.00 91 1013.7
20260906034459 60 304 0.0 0.0 0.00 0.00 0.00 90 1013.7
20260906033959 60 304 0.0 0.0 0.00 0.00 0.00 89 1013.7
20260906033459 61 304 0.0 0.0 0.00 0.00 0.00 89 1013.6
20260906032959 61 304 0.0 0.0 0.00 0.00 0.00 88 1013.6
20260906032459 61 304 0.0 0.0 0.00 0.00 0.00 90 1013.6
20260906031959 61 304 0.0 0.0 0.00 0.00 0.00 91 1013.7
20260906031501 60 304 0.0 0.0 0.00 0.00 0.00 92 1013.6
20260906030459 60 304 0.0 0.0 0.00 0.00 0.00 92 1013.5
20260906030000 60 304 0.0 0.0 0.00 0.00 0.00 92 1013.5
20260906025459 60 304 0.0 0.0 0.00 0.00 0.00 92 1013.5
20260906024959 60 304 0.0 0.0 0.00 0.00 0.00 91 1013.5
20260906024500 60 304 0.0 0.0 0.00 0.00 0.00 91 1013.4
20260906023959 60 304 0.0 0.0 0.00 0.00 0.00 91 1013.4
20260906023459 60 304 0.0 0.0 0.00 0.00 0.00 90 1013.4
20260906023000 61 304 0.0 0.0 0.00 0.00 0.00 90 1013.4
20260906022459 61 309 0.0 0.0 0.00 0.00 0.00 90 1013.2
20260906021959 61 309 0.0 0.0 0.00 0.00 0.00 90 1013.3
20260906021500 61 310 0.0 0.0 0.00 0.00 0.00 91 1013.3
20260906020959 61 310 0.0 0.0 0.00 0.00 0.00 90 1013.5
20260906020459 61 310 0.0 0.0 0.00 0.00 0.00 89 1013.4
20260906020000 62 50 0.0 0.0 0.00 0.00 0.00 88 1013.4
20260906015459 62 50 0.0 0.0 0.00 0.00 0.00 88 1013.3
20260906014959 62 50 0.0 0.0 0.00 0.00 0.00 88 1013.2
20260906014504 62 50 0.0 0.0 0.00 0.00 0.00 88 1013.3
20260906013959 62 50 0.0 0.0 0.00 0.00 0.00 88 1013.3
20260906013459 62 50 0.0 0.0 0.00 0.00 0.00 88 1013.3
20260906013000 63 50 0.0 0.0 0.00 0.00 0.00 88 1013.3
20260906011500 64 50 0.0 0.0 0.00 0.00 0.00 86 1013.1
20260906010459 64 50 0.0 0.0 0.00 0.00 0.00 84 1012.8
20260906005459 65 50 0.0 0.0 0.00 0.00 0.00 82 1012.7
20260906004959 65 50 0.0 0.0 0.00 0.00 0.00 82 1012.7
20260906003959 66 50 1.0 3.0 0.00 0.00 0.00 81 1012.6
20260906003000 66 50 2.0 4.0 0.00 0.00 0.00 80 1012.3
20260906002459 66 50 1.0 4.0 0.00 0.00 0.00 80 1012.3
20260906001500 67 50 0.0 0.0 0.00 0.00 0.00 78 1012.4
20260906000959 67 50 0.0 0.0 0.00 0.00 0.00 78 1012.4
20260905235459 69 50 1.0 4.0 0.00 0.00 0.00 75 1012.2
20260905234959 69 50 2.0 4.0 0.00 0.00 0.00 75 1012.1
20260905234500 69 50 2.0 6.0 0.00 0.00 0.00 74 1012.1
20260905233959 69 50 2.0 6.0 0.00 0.00 0.00 74 1012.0